TimeCDT,TemperatureF,Dew PointF,Humidity,Sea Level PressureIn,VisibilityMPH,Wind Direction,Wind SpeedMPH,Gust SpeedMPH,PrecipitationIn,Events,Conditions,WindDirDegrees,DateUTC
12:07 AM,28.4,17.6,64,30.28,10.0,NE,9.2,19.6,N/A,,Clear,50,2013-10-28 05:07:00
12:27 AM,28.4,17.6,64,30.29,10.0,NE,10.4,17.3,N/A,,Clear,40,2013-10-28 05:27:00
12:46 AM,28.4,17.6,64,30.30,10.0,NE,13.8,19.6,N/A,,Clear,50,2013-10-28 05:46:00
1:07 AM,26.6,15.8,64,30.31,10.0,NE,10.4,18.4,N/A,,Clear,40,2013-10-28 06:07:00
1:27 AM,26.6,15.8,64,30.32,10.0,NNE,10.4,18.4,N/A,,Clear,30,2013-10-28 06:27:00
1:47 AM,26.6,15.8,64,30.33,10.0,NE,12.7,19.6,N/A,,Clear,40,2013-10-28 06:47:00
2:07 AM,26.6,15.8,64,30.34,10.0,NE,9.2,17.3,N/A,,Clear,50,2013-10-28 07:07:00
2:27 AM,26.6,15.8,64,30.35,10.0,NE,6.9,-,N/A,,Clear,50,2013-10-28 07:27:00
2:47 AM,26.6,15.8,64,30.35,10.0,NE,6.9,-,N/A,,Clear,40,2013-10-28 07:47:00
3:07 AM,24.8,15.8,69,30.36,10.0,ENE,8.1,-,N/A,,Clear,60,2013-10-28 08:07:00
3:27 AM,24.8,15.8,69,30.37,10.0,ENE,6.9,-,N/A,,Clear,60,2013-10-28 08:27:00
3:46 AM,23.0,15.8,74,30.37,10.0,ENE,5.8,-,N/A,,Clear,60,2013-10-28 08:46:00
4:07 AM,23.0,15.8,74,30.38,10.0,NE,5.8,-,N/A,,Clear,50,2013-10-28 09:07:00
4:27 AM,23.0,15.8,74,30.38,10.0,NE,5.8,-,N/A,,Clear,50,2013-10-28 09:27:00
4:46 AM,23.0,15.8,74,30.39,10.0,ENE,3.5,-,N/A,,Clear,60,2013-10-28 09:46:00
5:07 AM,23.0,15.8,74,30.40,10.0,NE,4.6,-,N/A,,Clear,50,2013-10-28 10:07:00
5:27 AM,23.0,15.8,74,30.41,10.0,Calm,Calm,-,N/A,,Clear,0,2013-10-28 10:27:00
5:47 AM,21.2,15.8,80,30.42,10.0,ENE,3.5,-,N/A,,Clear,60,2013-10-28 10:47:00
6:06 AM,21.2,15.8,80,30.44,10.0,Calm,Calm,-,N/A,,Clear,0,2013-10-28 11:06:00
6:27 AM,21.2,15.8,80,30.44,10.0,Calm,Calm,-,N/A,,Clear,0,2013-10-28 11:27:00
6:47 AM,21.2,15.8,80,30.44,10.0,NE,3.5,-,N/A,,Clear,50,2013-10-28 11:47:00
7:06 AM,21.2,15.8,80,30.45,10.0,ENE,3.5,-,N/A,,Clear,60,2013-10-28 12:06:00
7:27 AM,21.2,14.0,74,30.46,10.0,ENE,3.5,-,N/A,,Clear,60,2013-10-28 12:27:00
7:47 AM,21.2,14.0,74,30.47,10.0,Calm,Calm,-,N/A,,Clear,0,2013-10-28 12:47:00
8:06 AM,17.6,12.2,79,30.48,10.0,Calm,Calm,-,N/A,,Clear,0,2013-10-28 13:06:00
8:27 AM,17.6,14.0,86,30.48,10.0,Calm,Calm,-,N/A,,Clear,0,2013-10-28 13:27:00
8:46 AM,19.4,17.6,93,30.49,10.0,Calm,Calm,-,N/A,,Clear,0,2013-10-28 13:46:00
9:07 AM,23.0,19.4,86,30.50,10.0,Calm,Calm,-,N/A,,Clear,0,2013-10-28 14:07:00
9:27 AM,26.6,19.4,74,30.50,10.0,ENE,5.8,-,N/A,,Clear,60,2013-10-28 14:27:00
9:46 AM,28.4,19.4,69,30.50,10.0,NE,5.8,-,N/A,,Clear,40,2013-10-28 14:46:00
10:07 AM,28.4,17.6,64,30.51,10.0,NE,6.9,-,N/A,,Clear,50,2013-10-28 15:07:00
10:27 AM,30.2,19.4,64,30.51,10.0,NNE,5.8,-,N/A,,Clear,30,2013-10-28 15:27:00
10:46 AM,30.2,19.4,64,30.51,10.0,NNE,5.8,-,N/A,,Clear,20,2013-10-28 15:46:00
11:07 AM,32.0,19.4,60,30.51,10.0,North,5.8,-,N/A,,Clear,350,2013-10-28 16:07:00
11:27 AM,32.0,19.4,60,30.51,10.0,North,3.5,-,N/A,,Clear,360,2013-10-28 16:27:00
11:46 AM,32.0,19.4,60,30.51,10.0,Calm,Calm,-,N/A,,Clear,0,2013-10-28 16:46:00
12:07 PM,32.0,19.4,60,30.51,10.0,NE,4.6,-,N/A,,Clear,50,2013-10-28 17:07:00
12:27 PM,32.0,17.6,55,30.50,10.0,Calm,Calm,-,N/A,,Clear,0,2013-10-28 17:27:00
12:46 PM,32.0,17.6,55,30.49,10.0,West,3.5,-,N/A,,Clear,260,2013-10-28 17:46:00
1:07 PM,33.8,19.4,56,30.49,10.0,NNW,3.5,-,N/A,,Clear,340,2013-10-28 18:07:00
1:27 PM,35.6,17.6,48,30.48,10.0,SSW,4.6,-,N/A,,Clear,210,2013-10-28 18:27:00
1:46 PM,35.6,15.8,44,30.48,10.0,WSW,3.5,-,N/A,,Clear,250,2013-10-28 18:46:00
2:07 PM,33.8,15.8,48,30.47,10.0,Calm,Calm,-,N/A,,Clear,0,2013-10-28 19:07:00
2:27 PM,35.6,17.6,48,30.47,10.0,WNW,4.6,-,N/A,,Clear,290,2013-10-28 19:27:00
2:46 PM,35.6,17.6,48,30.47,10.0,Calm,Calm,-,N/A,,Clear,0,2013-10-28 19:46:00
3:07 PM,35.6,17.6,48,30.46,10.0,Calm,Calm,-,N/A,,Scattered Clouds,0,2013-10-28 20:07:00
3:27 PM,35.6,17.6,48,30.46,10.0,North,3.5,-,N/A,,Mostly Cloudy,360,2013-10-28 20:27:00
3:47 PM,35.6,17.6,48,30.46,10.0,Calm,Calm,-,N/A,,Scattered Clouds,0,2013-10-28 20:47:00
4:06 PM,35.6,15.8,44,30.46,10.0,NNE,3.5,-,N/A,,Clear,30,2013-10-28 21:06:00
4:27 PM,35.6,14.0,41,30.45,10.0,Calm,Calm,-,N/A,,Clear,0,2013-10-28 21:27:00
4:47 PM,35.6,14.0,41,30.45,10.0,Calm,Calm,-,N/A,,Clear,0,2013-10-28 21:47:00
5:07 PM,33.8,14.0,44,30.45,10.0,Calm,Calm,-,N/A,,Clear,0,2013-10-28 22:07:00
5:26 PM,33.8,14.0,44,30.44,10.0,Calm,Calm,-,N/A,,Clear,0,2013-10-28 22:26:00
5:47 PM,32.0,14.0,48,30.44,10.0,Calm,Calm,-,N/A,,Clear,0,2013-10-28 22:47:00
6:07 PM,32.0,15.8,51,30.45,10.0,Calm,Calm,-,N/A,,Clear,0,2013-10-28 23:07:00
6:26 PM,30.2,17.6,60,30.45,10.0,Calm,Calm,-,N/A,,Clear,0,2013-10-28 23:26:00
6:47 PM,28.4,17.6,64,30.45,10.0,Calm,Calm,-,N/A,,Clear,0,2013-10-28 23:47:00
7:07 PM,26.6,15.8,64,30.45,10.0,Calm,Calm,-,N/A,,Clear,0,2013-10-29 00:07:00
7:26 PM,26.6,17.6,69,30.45,10.0,NNE,3.5,-,N/A,,Clear,20,2013-10-29 00:26:00
7:47 PM,24.8,17.6,74,30.45,10.0,Calm,Calm,-,N/A,,Clear,0,2013-10-29 00:47:00
8:07 PM,24.8,17.6,74,30.45,10.0,Calm,Calm,-,N/A,,Clear,0,2013-10-29 01:07:00
8:26 PM,23.0,15.8,74,30.45,10.0,Calm,Calm,-,N/A,,Clear,0,2013-10-29 01:26:00
8:47 PM,23.0,17.6,80,30.45,10.0,Calm,Calm,-,N/A,,Clear,0,2013-10-29 01:47:00
9:06 PM,21.2,15.8,80,30.45,10.0,Calm,Calm,-,N/A,,Clear,0,2013-10-29 02:06:00
9:27 PM,23.0,17.6,80,30.45,10.0,Calm,Calm,-,N/A,,Clear,0,2013-10-29 02:27:00
9:46 PM,21.2,17.6,86,30.45,10.0,SE,3.5,-,N/A,,Clear,140,2013-10-29 02:46:00
10:07 PM,21.2,17.6,86,30.46,10.0,Calm,Calm,-,N/A,,Clear,0,2013-10-29 03:07:00
10:27 PM,21.2,17.6,86,30.45,10.0,Calm,Calm,-,N/A,,Clear,0,2013-10-29 03:27:00
10:46 PM,21.2,17.6,86,30.46,10.0,Calm,Calm,-,N/A,,Clear,0,2013-10-29 03:46:00
11:07 PM,21.2,15.8,80,30.45,10.0,Calm,Calm,-,N/A,,Clear,0,2013-10-29 04:07:00
11:27 PM,21.2,17.6,86,30.45,10.0,NNE,4.6,-,N/A,,Clear,20,2013-10-29 04:27:00
11:46 PM,23.0,17.6,80,30.45,10.0,NE,3.5,-,N/A,,Clear,40,2013-10-29 04:46:00